RH
70 70 70 69 70 70 70 70 70 70 70 71 72 74 74 72 69 67 67 68 71 75 77 80 83 83 82 82 84 86 88 93 97 97 98 99 99 98 99 100 100 100
71 72 72 72 73 74 74 75 74 74 76 77 78 79 79 79 78 76 75 74 74 76 78 80 83 84 85 85 86 87 85 86 90 93 95 97 99 99 99 100 100 100
73 73 74 75 76 77 78 78 78 78 79 80 80 81 81 83 83 83 84 83 81 80 79 79 81 83 86 87 88 91 91 88 89 91 92 93 95 97 98 99 99 99
74 74 75 77 78 78 79 79 80 81 81 82 82 82 83 83 83 84 84 84 84 83 82 81 79 80 83 85 86 89 90 90 91 92 93 93 92 93 93 95 97 98
68 70 70 72 73 75 75 75 76 77 77 78 78 78 79 80 81 83 83 83 84 84 83 81 80 79 79 81 85 87 88 88 90 91 92 92 92 93 92 92 95 96
57 59 60 61 62 63 65 65 67 67 67 69 69 68 69 70 72 74 77 80 83 84 85 84 82 80 78 78 80 83 85 87 89 92 94 94 93 92 92 92 93 95
58 59 59 60 61 62 63 64 65 66 66 67 66 65 65 64 63 64 65 68 72 76 80 83 84 83 82 81 79 79 81 82 83 86 91 93 93 91 91 92 93 94
67 68 69 70 71 72 73 74 74 74 74 74 72 72 71 69 68 67 66 65 65 66 68 71 74 76 79 82 83 82 82 81 80 80 81 84 86 88 89 92 93 94
75 75 77 77 77 78 78 79 79 79 78 78 78 77 77 77 76 74 73 72 70 69 67 66 66 67 70 73 78 82 84 86 85 83 82 81 82 83 85 87 90 92
76 76 76 75 76 76 76 77 76 76 76 76 77 77 76 77 78 77 76 76 75 74 73 72 70 69 68 69 72 76 80 84 85 88 90 88 87 86 85 84 84 85
70 70 69 69 70 70 70 71 71 71 72 73 74 74 73 73 74 75 76 75 75 76 76 75 74 73 72 71 72 75 79 81 80 83 88 90 91 91 90 91 90 88
67 66 67 67 67 67 67 67 67 67 68 69 70 70 71 71 70 70 71 72 73 74 75 75 75 75 74 73 73 76 83 87 85 83 84 85 87 89 90 92 94 95
67 67 68 67 66 66 65 65 65 66 66 67 67 68 68 69 69 68 68 69 69 69 71 72 73 74 73 75 76 77 85 92 91 88 86 85 89 94 95 95 96 98
64 65 64 64 63 62 62 62 62 63 63 63 64 64 65 67 68 69 68 68 67 67 68 68 69 71 70 73 76 79 87 95 95 92 90 85 85 88 90 93 96 96
60 60 59 59 58 58 58 57 57 57 57 57 58 58 60 61 64 67 70 71 67 64 64 65 67 69 68 68 72 79 91 98 97 97 96 91 85 80 81 86 90 90
58 57 57 56 56 56 55 54 53 52 51 51 51 51 52 53 56 60 68 75 74 66 60 59 60 65 67 64 64 78 95 101 97 95 96 95 92 88 88 89 90 91
58 57 55 54 54 53 53 51 50 49 47 46 46 46 46 47 48 50 55 69 81 76 63 54 52 58 63 61 61 76 95 100 97 95 93 93 94 96 96 94 89 88
64 63 59 55 53 52 51 51 51 49 47 46 45 44 44 43 44 44 43 52 68 72 61 49 46 48 52 58 67 84 98 100 99 99 96 93 96 99 99 95 91 87
70 72 68 63 60 59 59 60 60 57 55 53 52 49 48 45 44 44 42 43 51 59 55 46 41 42 43 47 60 82 99 101 99 100 99 97 100 101 99 96 94 92
75 77 76 73 70 70 70 69 68 65 62 62 61 59 57 55 52 49 47 46 49 58 58 46 39 40 41 40 49 75 98 102 99 101 100 96 95 94 93 92 90 90
72 74 76 74 72 71 71 70 69 68 66 66 66 66 64 63 60 57 56 56 57 62 61 50 40 38 41 40 44 67 96 103 99 99 97 92 91 91 87 85 84 85
63 65 66 67 67 67 67 68 69 69 70 69 69 70 69 67 65 63 63 63 63 65 64 57 46 40 43 43 41 59 90 102 98 98 97 94 95 95 90 88 87 86
58 60 61 62 64 66 68 70 72 74 75 74 71 70 69 69 68 67 67 67 67 67 67 64 56 48 48 48 45 59 89 103 98 98 99 95 92 91 92 94 92 88
62 63 64 66 67 69 71 74 76 78 80 78 75 72 70 70 70 70 68 68 68 67 67 67 65 59 57 58 52 56 79 98 99 98 99 94 88 88 91 94 91 87
68 68 69 72 74 76 78 80 82 84 85 85 83 80 76 74 74 74 73 71 70 70 70 70 70 65 63 65 62 56 67 88 99 100 97 92 87 88 90 90 87 84
74 75 76 78 79 81 82 83 86 88 91 92 90 88 84 81 80 79 77 75 74 74 74 73 73 69 64 64 66 63 64 78 93 99 96 92 89 86 85 83 81 80
Wind_Speed
13 13 13 13 13 14 13 13 13 12 13 13 13 13 12 12 11 10 9 8 8 8 8 8 10 10 10 10 10 11 10 9 10 10 10 10 12 13 13 14 14 15
14 13 12 12 12 13 12 11 11 11 12 12 12 12 12 12 11 11 11 10 9 9 8 8 9 9 9 8 8 9 10 10 10 10 10 10 11 11 12 12 13 14
15 14 14 13 12 12 12 11 11 11 11 12 12 12 13 13 12 11 11 11 9 9 9 9 9 9 10 9 8 8 9 9 10 11 11 11 11 11 11 11 12 13
15 14 14 13 12 12 12 12 12 12 12 12 13 13 13 12 12 12 11 11 11 10 9 9 8 8 9 9 9 9 9 9 9 10 11 11 11 11 11 11 12 12
14 14 14 13 12 12 12 12 13 13 13 13 12 12 12 12 12 12 12 12 12 11 10 8 8 8 8 8 7 8 9 9 9 9 9 10 10 10 11 12 12 12
13 13 13 13 12 12 12 12 12 12 12 12 11 11 11 11 11 11 11 11 11 11 10 9 8 8 8 7 6 6 8 8 8 7 6 7 8 9 9 10 11 11
12 12 12 12 12 12 12 12 12 12 11 11 11 11 11 11 11 11 11 11 10 10 10 10 9 8 8 7 6 6 7 8 8 8 7 6 7 8 8 9 9 10
11 11 11 11 11 12 12 12 12 11 11 11 10 11 11 10 10 10 10 10 10 10 10 10 10 10 9 8 7 7 7 7 8 8 8 8 8 8 8 8 8 8
10 11 11 11 11 11 11 11 11 11 11 11 11 10 10 10 10 10 9 9 9 9 10 9 10 10 9 8 8 7 7 7 7 7 7 8 8 8 9 9 9 9
10 11 10 11 11 11 11 11 11 11 11 11 10 10 10 10 10 10 10 9 9 9 9 9 9 9 8 8 7 7 6 6 6 6 5 6 6 7 8 9 11 11
10 10 10 11 11 10 11 11 11 11 11 11 10 10 11 10 10 10 10 10 10 10 9 9 9 9 8 8 7 6 6 6 6 6 5 5 5 6 6 7 8 9
10 10 10 10 10 11 11 11 11 11 11 11 11 11 11 11 11 11 10 10 10 10 10 9 9 8 8 8 7 6 5 6 7 7 7 6 6 6 6 6 6 7
10 10 10 10 11 11 11 11 11 11 11 11 11 11 11 11 12 12 11 11 10 10 10 10 9 9 8 7 6 5 5 6 7 8 8 7 6 6 6 6 7 7
10 10 11 11 11 11 12 12 12 12 12 11 11 11 11 11 12 12 12 12 11 10 10 10 10 9 9 7 6 6 5 7 8 9 10 10 9 8 9 9 9 9
10 11 11 12 12 13 13 13 12 12 12 12 12 12 11 11 11 11 12 12 12 11 10 10 10 10 10 9 8 7 7 8 9 9 10 11 11 11 11 11 11 10
12 12 12 12 13 13 14 14 14 13 13 13 13 12 12 12 12 11 11 12 12 12 11 10 10 10 11 10 9 8 8 9 10 10 10 11 12 13 12 11 10 10
13 13 13 13 14 14 15 14 14 14 14 14 13 13 13 13 12 12 11 11 12 13 13 12 11 11 11 12 10 9 10 10 11 12 12 12 13 13 13 13 12 12
14 14 14 15 15 15 15 15 15 15 15 14 14 14 14 14 14 14 13 12 13 14 15 15 14 13 13 13 12 11 11 11 11 12 13 13 14 14 14 13 14 14
15 15 15 16 16 15 15 15 15 16 15 16 15 15 15 15 15 14 14 13 14 15 17 16 15 15 14 13 13 12 11 11 12 13 13 13 14 15 15 15 16 16
15 15 16 16 16 15 15 15 15 16 16 16 16 16 16 16 15 15 15 15 14 16 17 17 16 16 15 15 14 12 12 12 13 14 15 15 16 17 18 19 18 18
15 16 16 16 15 14 15 15 16 17 18 18 18 17 17 16 16 17 16 16 15 16 18 19 18 16 16 16 15 13 12 12 14 15 16 16 17 18 19 20 20 19
14 14 14 15 15 15 16 17 17 18 18 19 18 18 18 18 18 17 17 17 17 17 19 20 20 18 17 17 16 15 13 13 14 15 15 16 16 17 18 19 19 19
12 13 14 15 15 16 17 17 18 18 18 17 18 18 19 19 19 18 18 18 18 19 20 22 22 20 18 18 18 16 14 14 15 15 15 16 17 17 18 19 19 19
13 14 15 16 17 17 18 18 19 19 19 18 18 19 20 21 21 21 21 21 21 21 21 22 23 22 20 20 20 18 16 16 16 16 17 17 17 17 18 18 19 18
14 15 16 17 18 18 19 20 20 21 21 21 21 21 22 22 22 22 23 23 22 22 21 22 23 24 24 24 23 20 18 17 17 17 18 18 17 17 17 17 17 17
16 17 18 20 21 22 23 23 23 23 23 23 23 23 24 24 23 23 23 23 22 22 22 23 25 27 28 27 26 23 20 18 18 19 19 19 18 17 17 17 18 18
Wind_Direction
31 32 33 34 33 31 27 24 24 24 23 22 21 20 15 10 7 2 1 2 0 359 356 348 336 328 324 317 313 308 298 294 302 305 297 289 285 278 272 269 264 258
36 35 33 33 32 30 29 25 22 21 20 18 15 10 7 5 1 359 358 354 353 355 350 345 338 330 325 317 314 314 305 294 291 296 294 286 285 282 277 276 273 266
39 38 36 36 34 32 29 26 24 24 21 17 13 8 6 6 3 2 3 1 358 357 354 350 344 339 335 324 313 309 308 302 294 294 292 283 280 278 276 277 275 269
41 41 41 40 40 37 33 30 29 29 26 22 18 15 11 9 6 3 2 2 0 358 358 359 357 355 351 345 336 324 315 310 304 299 292 286 284 279 278 279 275 271
44 44 43 43 43 41 38 37 36 34 33 30 26 22 19 17 13 10 8 6 4 1 358 356 355 354 349 349 353 350 340 329 323 314 295 286 287 285 285 280 272 271
45 44 44 43 43 42 41 42 40 37 35 32 28 24 23 21 18 16 15 14 11 8 5 1 357 352 345 339 340 348 350 341 337 336 314 296 291 289 296 288 273 272
40 40 41 39 38 38 39 39 37 35 32 28 25 22 20 18 16 16 14 14 13 10 10 11 7 3 357 349 338 334 338 334 330 332 330 323 311 301 303 304 289 280
32 31 31 29 28 29 29 30 28 27 24 20 18 17 15 11 9 9 9 7 7 6 7 8 6 6 5 3 359 349 342 336 326 323 322 319 318 311 303 304 301 291
22 22 22 20 21 21 21 22 20 19 17 13 13 11 8 7 2 1 0 359 359 359 360 360 359 360 359 0 4 2 358 352 342 337 331 320 312 307 298 292 292 291
17 17 16 15 18 18 17 17 14 14 12 8 7 3 1 1 358 356 354 353 354 354 353 354 353 352 351 350 350 351 350 348 345 344 340 332 321 311 302 294 289 285
14 13 11 11 13 11 10 9 7 6 3 360 358 355 352 352 351 353 352 350 351 350 349 349 347 344 342 340 339 341 342 335 329 325 318 318 317 311 307 305 301 292
5 4 3 3 2 1 360 358 356 354 353 351 349 347 344 342 342 344 346 346 346 345 344 341 340 337 334 333 331 329 335 333 325 317 309 304 301 300 298 294 293 290
355 352 352 351 350 350 348 346 346 344 343 342 341 340 337 334 334 334 336 337 337 337 337 333 331 329 326 326 323 318 323 324 318 311 305 299 290 284 281 276 269 266
343 340 340 339 339 339 337 337 337 335 334 334 332 331 330 327 326 326 326 328 328 329 329 326 322 320 319 314 307 309 321 320 312 305 300 294 286 277 271 268 266 262
331 330 330 330 329 329 329 329 329 329 328 328 327 326 324 323 321 318 317 318 320 320 320 319 315 309 309 307 299 303 318 318 307 299 296 293 290 286 278 271 268 267
321 320 321 321 320 321 322 322 323 323 322 322 322 322 320 320 316 313 311 308 308 309 310 310 307 299 297 298 295 297 306 308 299 290 286 284 285 284 278 270 266 267
312 312 313 312 313 314 314 314 314 313 314 315 316 316 316 315 312 309 306 301 299 301 303 305 304 296 291 293 293 291 294 296 294 287 280 277 276 272 268 267 266 265
306 306 307 307 309 308 306 307 307 306 308 310 311 312 311 309 307 305 303 298 292 291 294 299 301 297 292 293 292 291 290 289 286 282 276 273 269 262 261 267 269 268
302 300 301 303 304 304 302 302 303 303 306 307 307 307 306 303 302 301 299 295 287 284 288 292 296 296 294 292 289 287 286 284 281 276 271 267 261 256 261 267 270 274
295 291 291 295 298 299 296 295 296 298 301 301 299 298 296 296 297 297 297 294 286 282 283 288 293 294 294 292 288 284 283 282 277 272 268 264 259 258 264 268 271 276
284 280 280 286 290 291 289 288 289 292 294 295 292 290 289 288 290 291 291 289 285 281 281 285 290 291 291 291 287 282 281 279 274 270 269 267 264 263 266 268 271 274
284 282 282 285 288 289 287 287 288 290 292 293 289 284 282 281 282 284 284 283 282 280 279 283 289 291 289 288 286 282 277 275 273 270 268 265 262 263 265 267 268 271
296 295 295 295 296 294 291 289 289 289 290 290 286 281 279 278 279 279 279 278 277 275 275 278 284 288 287 286 286 283 275 270 270 268 266 263 259 259 260 261 264 270
303 301 301 300 299 297 295 293 291 288 285 283 281 280 279 277 277 277 277 276 273 272 273 275 279 285 286 283 284 282 275 268 266 265 263 262 260 258 256 257 263 268
305 305 305 303 301 299 297 295 292 288 284 280 277 278 278 276 275 275 276 275 272 270 270 271 275 282 284 282 282 282 275 264 260 260 260 261 261 258 255 256 260 264
303 303 302 300 298 298 297 295 293 288 284 280 277 276 275 273 272 272 272 273 271 268 268 269 272 278 281 281 280 279 275 264 255 252 253 254 255 255 254 255 256 257